Find OneWeb SL0157

NORAD ID: 48055 Int'l Des: 2021-025 Owner: ONEWEBN Country: UK Constellation: oneweb operational
LEOCIRCULARPOLARONEWEB_TYPE

Live Position

Loading 3D Globe...

About OneWeb SL0157

Description loading...

Upcoming Passes

Passes for default location (London). Set your location on the main map for personalized predictions.

Altitude History

Loading altitude history...

Two-Line Element Set

1 48055U 21025P 26125.03717853 -.00000027 00000-0 -10898-3 0 9992
2 48055 87.8963 328.8169 0001369 86.4720 273.6566 13.13470215247902
Epoch: May 5, 2026 • Age: 12 hours

Current Status

Altitude 1235.1 km
Velocity 7.24 km/s
Sub-Earth Point -63.79°S, 99.47°W
Launch Date Mar 25, 2021
Age 5.1 years
Type internet

Technical Details

Classification Payload
Mass 148.00 kg
Dry Mass 140.00 kg
Total Mass 148.00 kg
Length 1.30 m
Diameter 1.00 m
Span 5.00 m
Shape Trapezoid+2 pan
Manufacturer ONEWUS
Bus Type ARROW
Phase Status In Orbit
Owner/State ONEWEBN/UK

Most Searched